GFSNE_sfc_30mbdewp_096.txt.gz
Dewpoint
53 53 53 53 54 53 52 51 49 47 47 49 51 53 53 52 51 52 51 50 49 48 48 49 50 50 50 50 51 51 50 49 48 48 48 47 46 45
54 54 53 54 54 54 53 53 52 50 47 49 50 52 53 54 54 53 52 51 50 49 49 48 48 48 49 49 50 49 48 47 47 46 44 43 42 42
54 54 53 54 54 54 54 54 54 53 52 51 51 51 51 51 52 53 53 51 50 48 47 47 47 47 47 48 47 47 46 45 44 43 42 41 40 40
54 55 54 55 54 54 54 54 54 54 53 51 51 51 50 50 50 51 51 51 49 48 47 46 45 44 45 45 44 43 42 41 40 40 39 37 34 32
54 54 54 54 54 54 54 54 54 54 53 53 52 50 47 44 44 44 44 44 45 45 44 44 44 43 43 42 41 41 40 39 36 35 33 30 31 30
54 54 54 54 54 53 54 54 54 54 53 53 52 46 43 41 41 41 41 40 41 41 40 40 40 40 40 40 39 39 39 38 37 33 33 31 31 32
53 54 54 53 49 50 53 53 53 53 53 50 44 39 38 37 38 37 36 36 38 38 38 37 37 35 35 36 37 37 37 35 36 35 33 31 32 32
53 48 43 40 39 39 40 39 42 49 47 42 38 37 34 34 34 34 34 33 33 36 33 32 34 33 33 32 32 33 33 33 32 34 33 33 33 34
51 45 40 37 36 35 35 34 34 34 36 38 35 33 32 32 32 31 31 31 30 31 25 22 25 23 24 22 24 27 27 25 24 24 25 26 25 25
44 42 39 36 35 34 33 31 31 31 32 32 32 31 31 30 27 23 18 16 17 22 21 18 22 19 20 20 21 24 21 20 19 19 19 20 22 23
34 35 34 33 34 33 29 28 27 27 29 27 25 24 25 24 23 22 20 18 17 18 19 17 20 17 18 17 19 18 17 17 16 16 16 17 17 17
30 31 32 31 31 30 27 26 25 26 26 26 25 23 22 21 21 21 20 17 16 15 20 17 18 17 15 18 17 17 17 17 17 18 18 18 17 20
29 28 29 30 30 29 28 27 26 28 26 25 24 21 20 19 19 20 20 20 18 17 18 16 15 14 14 12 14 13 16 17 17 19 20 18 18 15
25 27 29 29 28 27 27 28 27 27 25 23 21 18 17 17 17 16 15 14 13 12 13 15 14 14 13 12 11 12 12 12 12 13 18 17 18 15
27 29 28 27 26 26 26 25 25 23 20 18 17 16 15 14 12 11 12 10 10 10 8 12 13 10 9 8 6 6 7 9 14 11 12 11 9 11
27 26 26 25 25 24 22 21 21 20 18 17 15 14 12 12 11 11 10 9 8 8 6 8 8 8 8 8 8 9 10 10 7 8 9 10 11 12
25 25 23 22 20 19 19 18 18 17 15 15 13 12 10 10 10 10 9 8 7 6 5 5 5 7 7 6 7 6 5 5 8 9 9 8 9 11
22 20 19 18 17 16 15 14 13 11 11 11 10 9 8 8 8 8 8 7 5 5 5 5 6 6 5 3 3 4 6 8 8 8 7 7 7 8
17 16 15 15 14 14 13 11 10 11 11 10 8 8 8 8 7 7 6 5 5 5 6 5 5 4 3 1 2 4 6 6 6 6 6 8 8 9
14 13 13 13 11 11 10 9 8 9 8 7 7 5 4 5 5 5 5 4 5 5 4 3 3 3 5 4 5 4 4 4 5 7 8 9 10 10
11 11 11 10 9 8 8 7 5 4 4 4 4 3 2 3 3 3 3 3 4 4 3 3 4 5 4 4 3 2 3 4 6 8 10 10 10 10
9 9 9 8 8 6 5 4 5 5 4 4 1 0 -1 1 1 2 2 2 3 3 3 3 3 3 4 3 2 2 3 4 5 6 9 12 13 10
7 7 6 5 4 3 4 3 2 2 1 1 0 0 -1 -0 1 0 0 1 2 2 2 2 2 2 2 2 2 3 2 3 5 9 10 15 19 17

GFSNE_sfc_30mbdewp_102.txt.gz
Dewpoint
47 46 47 49 51 51 50 50 49 47 46 48 48 51 50 50 49 49 50 50 50 50 49 49 50 51 51 52 53 54 54 55 55 54 54 55 55 55
51 48 49 50 51 51 50 50 49 49 48 49 49 50 51 52 52 51 51 50 50 49 48 48 48 48 49 50 51 51 52 52 52 52 53 54 54 53
52 50 50 52 51 52 53 53 52 52 50 51 51 51 50 50 51 52 52 52 52 51 50 49 48 47 47 47 47 48 48 49 50 48 47 46 46 46
51 50 50 52 50 52 52 52 52 53 51 49 51 50 50 50 50 50 50 51 50 46 46 45 44 44 44 43 43 43 43 43 42 40 40 40 39 39
52 52 51 52 51 53 53 53 53 52 52 52 51 51 49 48 48 46 46 45 45 43 42 41 41 40 40 40 39 39 40 40 39 38 38 38 38 38
50 52 52 52 52 52 52 52 52 52 52 52 51 51 50 46 46 46 43 42 40 41 40 39 39 38 37 35 35 35 35 35 35 33 32 31 30 31
49 51 52 52 52 53 52 53 53 52 52 51 51 51 48 43 43 42 41 37 34 35 37 37 36 35 29 28 31 31 30 28 27 25 24 24 24 24
50 51 51 51 52 48 46 43 44 51 51 51 51 49 45 40 37 37 36 34 33 28 32 28 29 24 21 22 29 26 25 23 22 22 22 21 21 21
51 51 50 47 46 40 36 34 33 32 34 43 46 38 35 34 34 33 32 31 27 24 28 25 26 24 23 24 27 23 21 20 20 21 19 19 19 20
49 49 48 45 42 39 35 31 30 29 29 30 29 28 28 29 30 29 28 25 25 23 25 23 24 23 25 25 22 20 18 18 18 15 11 12 13 14
45 46 48 44 38 36 32 28 27 28 29 29 28 28 28 28 29 28 26 25 23 20 20 22 20 17 20 21 16 16 15 16 12 9 11 12 15 16
36 36 38 38 35 32 30 28 25 24 24 23 23 23 22 23 22 23 24 22 22 19 17 16 14 13 12 17 14 14 14 8 7 10 12 14 14 10
32 30 31 32 31 30 29 27 24 24 23 22 21 20 20 19 19 20 20 20 18 14 17 16 15 14 12 10 6 7 7 7 11 11 13 13 8 9
29 29 30 30 29 28 27 26 24 23 21 19 18 16 16 17 17 17 18 17 16 14 13 13 12 8 7 7 6 5 6 8 9 8 12 8 9 9
29 28 27 26 25 24 24 23 22 20 18 16 15 15 15 16 16 14 15 12 8 5 7 9 10 9 8 7 6 6 7 5 7 9 8 9 9 9
22 22 22 21 20 20 19 19 19 18 16 15 14 14 14 12 10 10 9 10 9 8 5 6 6 6 6 6 5 5 5 4 5 8 8 8 8 8
22 21 19 18 17 16 16 16 16 15 14 13 12 11 11 10 8 8 6 5 4 4 4 5 4 5 5 4 5 3 4 4 6 7 6 7 7 8
19 17 16 15 14 14 13 13 13 12 12 11 11 10 9 7 6 5 5 4 4 4 4 4 5 4 2 1 4 2 3 5 6 6 6 7 7 7
15 14 14 13 13 13 12 11 10 10 9 9 8 7 7 5 5 4 3 3 3 3 4 4 4 3 1 -1 0 3 4 6 6 6 6 7 8 8
13 12 12 12 11 11 10 9 8 8 6 4 3 3 4 3 3 2 2 1 2 2 2 2 2 3 2 2 3 3 5 5 6 6 7 8 9 9
10 9 9 9 8 6 6 5 4 3 2 1 -0 -0 -1 0 -0 -0 -1 -1 1 1 0 1 1 4 3 4 3 1 2 3 5 8 9 9 8 9
8 7 7 7 6 5 5 4 3 1 0 -1 -2 -2 -2 -1 -2 -2 -2 -1 -0 1 0 0 0 0 1 -0 -0 0 1 2 3 7 12 14 10 8
5 4 4 4 4 4 3 2 0 -1 -1 -1 -2 -2 -4 -3 -2 -2 -2 -2 -1 -2 -1 -1 -2 -1 -1 -2 -2 -1 -1 1 3 8 12 19 23 19

GFSNE_sfc_30mbdewp_105.txt.gz
Dewpoint
52 51 49 45 44 45 51 49 44 42 46 50 50 54 52 52 53 53 53 52 51 50 49 49 50 50 51 51 52 52 53 54 54 55 55 55 55 55
51 50 51 51 52 52 51 49 50 46 45 50 51 53 55 53 53 52 52 51 50 49 49 48 48 49 49 50 50 50 51 51 51 52 52 52 52 51
51 51 51 51 51 52 52 51 51 50 48 49 52 52 52 53 53 54 54 54 54 51 50 49 48 47 47 47 46 47 47 47 46 45 44 44 44 44
51 51 50 51 51 51 51 51 51 52 49 48 51 50 51 53 53 53 52 51 52 44 44 44 44 43 42 42 42 43 42 41 40 39 39 39 39 40
51 51 50 50 51 52 52 52 52 53 53 51 50 52 53 52 51 51 50 47 44 41 41 40 40 39 38 38 38 38 38 37 36 34 33 32 33 33
51 51 50 50 49 50 52 51 53 53 53 52 52 52 52 52 51 51 46 43 41 40 39 39 34 32 33 34 33 33 32 30 29 28 27 26 26 26
52 52 52 52 51 51 51 52 52 52 52 51 51 51 51 47 48 48 46 36 32 36 35 33 31 29 31 33 31 31 30 28 27 25 24 24 24 24
51 51 50 51 51 50 49 49 52 52 51 51 51 50 50 49 43 42 38 34 33 29 30 28 29 27 28 31 30 27 26 26 26 22 19 17 17 17
51 50 50 50 49 44 39 37 35 35 36 45 49 47 43 39 37 36 35 32 26 26 29 24 27 25 28 31 29 25 22 21 19 15 13 14 15 16
52 52 51 51 47 43 38 34 31 31 31 32 32 30 31 31 32 31 28 24 24 23 25 22 24 24 26 29 23 20 20 18 11 11 13 15 17 17
51 51 51 51 45 40 36 31 29 28 29 29 28 28 28 28 30 29 27 25 22 19 20 24 22 20 21 23 22 22 21 12 10 14 14 16 16 12
37 37 38 45 39 37 36 30 26 25 23 22 22 22 22 23 23 24 26 24 22 18 19 21 18 17 16 20 20 11 13 6 9 10 12 15 13 8
33 31 32 32 32 31 30 27 24 23 22 21 20 19 19 19 20 21 22 22 18 16 16 18 13 13 11 5 1 4 6 5 7 7 8 9 10 11
30 30 30 29 28 27 26 25 23 22 20 18 17 16 17 17 18 18 18 17 15 13 13 15 11 8 8 8 3 1 5 5 4 5 6 8 8 9
28 28 27 26 24 24 23 22 21 20 17 15 14 15 16 17 18 17 15 13 10 9 9 10 9 5 5 5 4 4 5 3 5 5 7 8 8 8
21 21 21 21 20 20 19 19 19 19 17 15 14 15 15 14 13 13 13 11 7 6 5 6 5 7 7 6 4 5 2 4 4 7 7 8 9 10
23 22 20 19 17 17 16 16 17 16 14 15 13 12 11 11 10 9 6 5 5 3 3 4 4 5 5 4 6 3 3 4 7 7 8 8 10 11
20 19 18 17 16 15 14 13 12 12 12 11 11 10 9 7 6 6 6 5 5 4 4 4 5 6 4 4 4 3 5 6 7 7 8 10 10 11
19 18 17 16 15 12 11 10 9 9 9 8 8 7 6 6 5 4 5 5 4 4 2 3 5 5 5 5 4 4 6 6 7 9 10 10 11 12
16 15 14 12 10 9 8 7 6 6 5 4 5 6 6 5 4 3 3 5 4 3 2 1 2 3 4 5 5 7 7 6 7 9 10 11 12 13
10 10 10 8 7 7 8 7 7 5 5 4 4 3 5 3 3 3 3 2 3 2 2 2 2 3 3 5 6 5 5 5 7 9 10 11 13 15
8 7 7 7 7 7 7 6 5 5 4 3 4 4 5 4 3 3 3 4 2 3 1 1 1 2 3 1 1 2 4 6 9 12 14 14 14 17
7 7 7 7 7 7 6 5 4 4 3 3 3 2 3 3 3 3 3 2 1 2 1 2 1 1 1 -0 0 2 4 6 9 13 20 21 21 21

GFSNE_sfc_30mbdewp_111.txt.gz
Dewpoint
55 55 54 55 55 52 47 47 46 45 45 50 51 52 53 54 54 54 54 54 51 50 50 50 50 50 51 51 52 52 52 53 53 53 53 53 53 54
55 55 54 54 54 53 49 50 48 46 46 48 50 53 54 51 53 54 55 54 51 50 49 49 48 49 49 49 49 50 50 50 50 50 50 49 49 47
55 54 54 55 54 54 52 50 48 47 42 44 48 53 54 54 55 56 55 55 49 47 48 47 47 46 46 46 45 45 44 44 44 43 43 43 43 42
54 54 54 54 53 52 53 51 47 47 46 45 46 49 52 54 53 53 53 53 45 41 41 41 41 41 41 40 39 37 36 36 35 35 36 36 36 36
54 54 53 53 51 51 52 52 50 51 51 48 47 49 52 54 54 55 51 46 41 38 38 39 39 39 38 36 35 34 34 33 31 30 29 28 28 28
54 53 53 52 52 52 51 51 52 52 52 51 50 51 51 52 53 53 48 44 41 37 37 37 36 35 35 34 33 32 31 30 28 26 24 22 21 21
52 53 53 52 52 52 52 52 52 52 51 51 50 50 50 52 51 52 50 39 36 35 33 33 33 33 33 33 32 32 29 26 22 20 18 18 19 20
51 52 51 51 51 50 51 51 52 51 50 50 50 49 50 50 51 50 46 39 38 34 31 29 32 31 31 30 30 29 25 20 17 16 17 18 19 19
50 51 50 50 51 50 47 46 42 40 41 49 50 49 49 47 50 47 43 39 34 29 29 26 29 28 30 29 28 28 23 17 15 17 18 18 18 19
50 50 51 51 51 50 45 39 34 33 34 35 34 32 33 35 37 37 34 26 26 26 29 23 27 25 29 28 28 27 24 21 13 14 16 17 17 17
52 51 51 51 50 48 42 35 29 28 29 29 29 29 29 30 32 32 30 29 23 22 24 23 24 24 27 28 27 26 23 23 16 12 12 12 13 13
41 38 38 45 48 45 41 34 29 25 24 24 24 24 24 25 25 28 29 26 22 21 23 23 23 24 23 27 28 26 12 13 10 10 10 10 11 13
34 33 33 36 37 36 34 31 26 24 23 22 21 21 21 21 22 23 24 26 22 20 23 25 23 21 22 13 12 9 9 11 11 9 9 11 13 13
30 30 31 31 30 29 27 26 24 23 22 21 21 20 20 20 21 22 23 23 24 23 25 25 21 21 19 14 3 4 9 10 8 8 12 13 13 14
27 27 26 26 25 24 24 24 23 22 21 20 20 20 21 21 19 18 17 16 16 16 17 17 14 11 13 10 7 9 8 7 8 11 14 13 14 15
24 24 24 23 23 24 25 24 24 24 23 21 20 21 19 16 15 15 15 13 11 10 8 8 9 12 12 9 7 10 6 6 9 12 13 15 15 15
26 26 25 24 23 23 24 24 24 22 21 19 17 14 12 12 12 13 13 10 8 6 6 7 8 9 8 7 12 6 6 9 12 13 14 14 15 17
27 26 25 24 23 21 20 18 17 16 14 13 12 11 11 12 12 12 12 11 9 7 7 8 10 11 10 11 10 7 9 12 12 13 15 16 16 18
24 24 23 22 20 18 17 16 14 13 13 14 14 13 12 11 12 12 12 10 8 6 5 6 8 9 11 12 11 9 11 12 12 15 16 17 17 18
22 21 20 17 15 13 12 12 12 13 13 13 14 14 13 12 11 11 12 12 8 5 3 3 5 6 9 11 11 13 15 12 12 14 16 16 17 19
15 15 14 13 14 14 15 15 15 14 14 14 13 13 13 11 10 9 7 7 9 4 4 4 4 6 9 9 11 10 11 12 13 15 16 16 16 18
12 12 13 13 13 13 14 13 13 13 12 12 13 14 13 12 10 10 11 10 7 7 5 5 5 6 7 6 6 8 10 12 16 17 17 18 18 20
13 13 13 13 13 13 12 12 12 11 11 11 11 11 12 10 10 9 9 8 6 7 6 7 7 6 7 7 6 8 10 11 14 16 18 27 21 21

GFSNE_sfc_30mbdewp_117.txt.gz
Dewpoint
55 55 55 56 56 55 53 51 48 48 50 49 49 52 52 53 52 51 51 51 50 50 50 51 52 52 52 52 52 52 52 52 52 52 51 52 52 51
55 55 55 56 56 56 55 53 52 49 48 50 50 52 51 52 52 53 51 49 49 49 49 49 49 49 50 50 50 50 50 50 50 50 50 50 48 49
55 55 55 56 56 55 55 54 53 52 48 49 50 52 53 54 55 54 51 49 47 47 48 48 48 48 48 48 48 49 48 47 48 46 45 44 43 42
55 55 55 55 55 55 54 53 53 53 50 48 50 52 52 55 54 53 49 45 44 43 44 45 45 44 44 44 43 42 42 41 40 39 38 37 36 35
55 55 54 54 54 54 54 54 53 53 52 50 50 52 53 54 51 46 42 41 41 41 41 40 40 40 39 39 38 36 35 33 32 31 31 31 31 31
55 54 55 54 54 54 53 53 53 52 52 51 50 51 52 53 52 47 44 40 38 39 39 38 38 38 37 36 35 34 33 32 31 30 29 28 26 25
54 55 55 55 54 54 53 53 53 52 51 50 50 50 50 51 50 50 46 39 36 36 35 36 35 35 35 34 33 32 30 29 27 26 25 24 24 22
53 53 54 54 53 53 53 53 53 52 50 50 49 49 49 50 50 50 44 40 39 36 33 31 33 31 31 31 31 28 25 24 24 23 21 21 21 21
52 52 52 52 52 50 44 43 43 46 49 50 49 49 49 50 50 49 46 42 39 33 31 28 30 29 31 31 30 28 25 20 21 19 19 18 18 19
52 52 52 51 50 46 42 39 36 35 38 41 43 38 37 38 41 40 40 30 29 29 31 25 28 27 29 30 30 29 27 24 17 15 16 16 17 17
47 46 51 51 48 44 40 36 32 30 32 32 31 31 32 32 34 36 35 33 28 26 27 26 26 25 27 27 30 28 26 25 26 22 15 14 15 16
37 38 38 47 46 43 41 37 33 27 27 26 26 26 26 27 28 30 34 34 26 24 25 23 25 25 23 28 28 27 26 27 27 22 13 14 16 16
34 33 33 38 38 39 38 36 31 26 25 24 24 23 23 23 24 25 27 30 26 22 25 26 24 24 24 23 24 25 25 20 15 15 17 16 16 17
29 29 31 31 31 30 29 28 27 26 24 23 21 21 20 21 22 23 24 24 25 25 27 27 24 23 21 18 11 15 15 14 12 15 16 16 17 18
28 28 28 27 27 27 27 26 25 24 22 21 20 20 20 21 20 18 16 16 16 16 18 19 20 18 15 12 10 11 10 12 16 15 15 15 16 18
25 25 25 25 25 25 24 24 24 23 21 20 20 22 23 19 17 15 13 12 9 10 12 14 14 15 10 12 12 10 10 10 15 14 15 16 19 20
26 25 24 24 23 23 23 23 23 23 21 22 21 20 17 16 15 16 15 12 9 9 9 11 11 11 11 13 11 12 14 14 14 15 16 18 18 23
25 23 22 22 21 21 20 19 20 19 18 18 17 16 16 15 15 14 13 11 11 11 11 12 13 12 13 13 14 10 12 13 15 14 17 16 16 19
21 20 20 19 18 17 18 18 18 18 17 16 16 16 16 14 14 12 11 10 9 9 10 9 9 11 13 13 14 13 12 14 15 13 14 14 15 16
18 18 18 18 18 18 18 17 17 17 17 16 15 14 15 14 13 11 10 7 7 10 9 6 5 5 8 7 8 10 16 16 15 12 12 14 17 19
17 17 17 16 16 16 15 15 15 14 14 13 13 12 10 8 8 8 8 9 9 9 7 6 6 7 9 12 9 9 9 13 16 14 13 14 16 17
17 16 15 15 15 15 14 13 14 14 14 13 12 11 11 10 9 8 8 7 9 9 9 10 12 11 10 10 9 7 9 12 13 17 18 19 19 15
15 16 15 15 15 14 13 12 12 11 11 10 9 9 9 9 10 10 9 7 8 7 8 8 11 12 11 11 10 9 8 11 16 12 12 16 17 24

GFSNE_sfc_30mbdewp_123.txt.gz
Dewpoint
57 57 56 56 57 56 55 55 53 50 51 53 54 56 57 56 55 54 54 53 51 51 50 51 52 54 55 56 57 57 57 56 55 54 54 54 53 53
57 57 56 56 56 56 55 55 54 52 50 52 53 55 56 55 55 54 54 53 51 50 50 49 50 51 52 53 54 53 53 52 53 53 52 52 52 52
56 56 55 56 56 56 55 54 54 53 51 52 54 55 55 55 53 52 51 49 48 49 49 49 49 50 51 51 51 51 51 51 51 51 51 51 49 47
55 55 55 56 55 56 55 54 54 53 52 51 53 53 53 53 51 50 48 47 46 46 47 47 47 48 48 47 46 45 45 46 46 46 45 44 42 40
55 55 55 55 55 55 55 54 54 54 53 52 52 53 52 49 45 44 42 42 42 42 43 43 43 43 42 41 40 39 39 38 37 37 36 36 35 34
55 55 55 55 55 55 54 54 54 53 52 52 51 52 51 49 47 43 41 40 38 39 40 40 39 39 39 38 37 37 36 35 34 33 32 31 30 28
55 55 55 55 55 55 54 53 53 52 52 51 51 50 50 48 47 45 41 38 36 37 37 37 36 36 36 36 35 35 34 33 32 30 28 27 26 24
54 54 55 54 54 54 54 54 53 52 51 50 50 49 50 50 48 45 38 38 39 37 33 32 34 32 32 32 33 33 32 30 30 28 27 26 23 20
54 54 53 53 54 53 50 51 48 49 51 51 50 50 49 51 49 45 42 41 41 35 33 29 31 29 32 32 31 30 29 27 26 25 24 21 19 19
53 53 53 52 52 49 45 42 39 40 42 48 52 49 49 51 50 48 43 34 32 32 32 29 29 28 30 31 31 29 28 26 25 22 22 20 18 17
51 51 52 51 46 45 42 38 34 32 34 34 34 34 36 38 41 43 40 39 32 30 30 27 27 26 28 29 31 29 28 27 27 27 21 18 17 18
41 42 44 49 43 42 41 38 37 31 31 31 31 30 30 31 33 37 40 40 31 29 29 27 26 25 23 27 28 29 28 28 28 26 24 19 17 18
40 39 39 43 40 40 40 39 37 30 29 28 28 27 27 26 27 28 31 35 33 29 28 27 26 26 24 23 25 26 26 26 26 22 20 18 18 18
34 32 34 36 36 35 34 31 29 28 28 27 26 24 24 23 24 25 27 28 29 29 29 28 26 25 23 21 21 24 25 24 17 16 15 17 18 20
30 30 31 30 30 29 29 28 28 28 26 25 22 21 21 22 23 24 24 24 24 25 27 28 27 26 25 22 20 20 14 16 16 15 15 16 17 19
26 25 25 25 25 25 25 25 25 25 24 22 21 21 22 21 21 22 21 22 20 18 18 23 24 20 15 14 14 12 14 13 14 15 17 18 19 21
26 25 25 24 23 23 23 24 24 23 22 22 21 20 20 19 18 18 16 15 14 12 14 15 16 16 15 13 12 13 13 13 15 14 15 15 15 17
23 22 21 21 21 21 21 21 22 22 22 21 21 21 20 19 17 17 16 14 13 12 13 13 13 12 12 14 15 12 12 12 14 14 15 13 13 14
20 20 20 20 20 20 20 20 19 21 22 21 20 20 19 18 16 15 13 12 10 9 10 11 13 12 10 10 12 15 13 13 14 13 13 13 12 13
18 18 17 18 18 18 18 18 18 19 18 17 16 16 15 14 13 12 11 9 8 8 8 8 9 11 11 10 9 11 16 15 14 13 13 13 15 17
17 16 17 16 16 16 15 15 14 14 14 13 12 12 12 11 11 11 10 10 10 9 9 10 9 12 12 9 7 7 9 14 16 14 14 14 14 14
15 15 15 15 15 15 15 14 13 12 11 10 9 9 10 10 10 10 10 9 10 10 11 12 13 13 13 11 8 7 8 10 13 15 14 15 13 9
12 12 12 12 12 12 11 11 10 11 11 10 10 9 9 9 9 9 8 8 7 7 8 8 8 9 11 10 8 8 9 9 11 9 7 9 11 17